|
NORAD ID: 32405 Int'l Code: 2008-001B
Perigee: 683.2 km
Apogee: 35,748.4 km
Inclination: 6.1 °
Period: 639.5 minutes
Semi major axis: 24586 km
Launch date: January 15, 2008
Source: Sea Launch (SEAL)
Note: This is a ROCKET BODY
Two Line Element Set (TLE):
1 32405U 08001B 13144.75916715 -.00000056 00000-0 14897-2 0 9125
2 32405 006.0790 313.2803 7130906 086.8531 006.4629 02.25190719 44095
Source:
NASA's NSSDC Master Catalog entry for BLOCK DM-SL R/B
|